Meteo pe oră la Bolshoe Alekseycevo

Astăzi, 8 Mai, Sâmbătă

Timp Temperatura Precipitaţii Vânt Presiune Umiditate
00:00 +4°C° 0 mm 2 m/s 742 mmHg 85%
01:00 +3°C° 0 mm 3 m/s 742 mmHg 87%
02:00 +3°C° 0 mm 3 m/s 742 mmHg 90%
03:00 +4°C° 0 mm 3 m/s 742 mmHg 86%
04:00 +5°C° 0 mm 4 m/s 741 mmHg 82%
05:00 +5°C° 0 mm 4 m/s 741 mmHg 78%
06:00 +6°C° 0.1 mm 5 m/s 741 mmHg 78%
07:00 +7°C° 0.1 mm 5 m/s 741 mmHg 78%
08:00 +8°C° 0 mm 6 m/s 741 mmHg 75%
09:00 +8°C° 0.2 mm 6 m/s 740 mmHg 80%
10:00 +7°C° 0.2 mm 5 m/s 740 mmHg 85%
11:00 +6°C° 0.2 mm 5 m/s 740 mmHg 89%
12:00 +6°C° 0.7 mm 4 m/s 740 mmHg 91%
13:00 +6°C° 0.7 mm 4 m/s 740 mmHg 93%
14:00 +6°C° 0.7 mm 4 m/s 739 mmHg 94%
15:00 +7°C° 0.8 mm 3 m/s 739 mmHg 95%
16:00 +7°C° 0.8 mm 2 m/s 739 mmHg 95%
17:00 +8°C° 0.8 mm 1 m/s 738 mmHg 96%
18:00 +7°C° 1.1 mm 2 m/s 738 mmHg 96%
19:00 +7°C° 1.1 mm 2 m/s 738 mmHg 97%
20:00 +5°C° 1.1 mm 3 m/s 738 mmHg 97%
21:00 +5°C° 1.2 mm 4 m/s 738 mmHg 96%
22:00 +5°C° 1.2 mm 5 m/s 737 mmHg 95%
23:00 +3°C° 1.2 mm 6 m/s 737 mmHg 94%

Mâine, 9 Mai, Duminică

Timp Temperatura Precipitaţii Vânt Presiune Umiditate
00:00 +3°C° 0.7 mm 6 m/s 737 mmHg 94%
01:00 +2°C° 0.7 mm 6 m/s 738 mmHg 94%
02:00 +1°C° 0.7 mm 6 m/s 738 mmHg 95%
03:00 +1°C° 0.7 mm 6 m/s 738 mmHg 95%
04:00 -1°C° 0.7 mm 6 m/s 739 mmHg 95%
05:00 -1°C° 0.7 mm 6 m/s 739 mmHg 95%
06:00 +1°C° 0.4 mm 6 m/s 740 mmHg 92%
07:00 +1°C° 0.4 mm 6 m/s 741 mmHg 89%
08:00 +2°C° 0.4 mm 6 m/s 741 mmHg 85%
09:00 +3°C° 0 mm 6 m/s 742 mmHg 77%
10:00 +5°C° 0 mm 6 m/s 742 mmHg 69%
11:00 +7°C° 0 mm 6 m/s 743 mmHg 61%
12:00 +8°C° 0 mm 6 m/s 744 mmHg 56%
13:00 +9°C° 0 mm 6 m/s 744 mmHg 51%
14:00 +10°C° 0 mm 5 m/s 745 mmHg 46%
15:00 +10°C° 0 mm 5 m/s 745 mmHg 47%
16:00 +9°C° 0 mm 5 m/s 746 mmHg 49%
17:00 +9°C° 0 mm 5 m/s 747 mmHg 50%
18:00 +7°C° 0 mm 4 m/s 748 mmHg 56%
19:00 +7°C° 0 mm 3 m/s 748 mmHg 61%
20:00 +4°C° 0 mm 3 m/s 749 mmHg 66%
21:00 +4°C° 0 mm 2 m/s 750 mmHg 68%
22:00 +3°C° 0 mm 2 m/s 751 mmHg 69%
23:00 +2°C° 0 mm 2 m/s 751 mmHg 71%

Poimâine, 10 Mai, Luni

Timp Temperatura Precipitaţii Vânt Presiune Umiditate
00:00 +2°C° 0 mm 2 m/s 752 mmHg 70%
01:00 +1°C° 0 mm 2 m/s 753 mmHg 69%
02:00 +2°C° 0 mm 1 m/s 753 mmHg 68%
03:00 +3°C° 0 mm 1 m/s 754 mmHg 68%
04:00 +2°C° 0 mm 2 m/s 754 mmHg 68%
05:00 +3°C° 0 mm 2 m/s 754 mmHg 68%
06:00 +5°C° 0 mm 2 m/s 755 mmHg 63%
07:00 +7°C° 0 mm 3 m/s 755 mmHg 58%
08:00 +9°C° 0 mm 3 m/s 755 mmHg 53%
09:00 +11°C° 0 mm 4 m/s 755 mmHg 50%
10:00 +12°C° 0 mm 4 m/s 755 mmHg 46%
11:00 +13°C° 0 mm 5 m/s 755 mmHg 43%
12:00 +12°C° 0 mm 4 m/s 755 mmHg 49%
13:00 +12°C° 0 mm 3 m/s 755 mmHg 54%
14:00 +11°C° 0 mm 3 m/s 755 mmHg 60%
15:00 +11°C° 0 mm 3 m/s 755 mmHg 60%
16:00 +12°C° 0 mm 3 m/s 755 mmHg 61%
17:00 +12°C° 0 mm 3 m/s 755 mmHg 61%
18:00 +11°C° 0 mm 3 m/s 756 mmHg 67%
19:00 +10°C° 0 mm 3 m/s 756 mmHg 73%
20:00 +8°C° 0 mm 3 m/s 756 mmHg 80%
21:00 +8°C° 0 mm 3 m/s 756 mmHg 81%
22:00 +7°C° 0 mm 3 m/s 756 mmHg 81%
23:00 +7°C° 0 mm 3 m/s 757 mmHg 82%

11 Mai, Marţi

Timp Temperatura Precipitaţii Vânt Presiune Umiditate
00:00 +7°C° 0 mm 2 m/s 757 mmHg 84%
01:00 +7°C° 0 mm 2 m/s 757 mmHg 85%
02:00 +7°C° 0 mm 2 m/s 757 mmHg 86%
03:00 +7°C° 0 mm 2 m/s 757 mmHg 85%
04:00 +7°C° 0 mm 2 m/s 757 mmHg 84%
05:00 +8°C° 0 mm 2 m/s 758 mmHg 83%
06:00 +10°C° 0 mm 2 m/s 758 mmHg 76%
07:00 +12°C° 0 mm 3 m/s 758 mmHg 70%
08:00 +14°C° 0 mm 3 m/s 758 mmHg 63%
09:00 +16°C° 0 mm 3 m/s 758 mmHg 59%
10:00 +17°C° 0 mm 3 m/s 758 mmHg 56%
11:00 +18°C° 0 mm 3 m/s 758 mmHg 52%
12:00 +19°C° 0 mm 3 m/s 758 mmHg 51%
13:00 +19°C° 0 mm 3 m/s 758 mmHg 50%
14:00 +19°C° 0 mm 3 m/s 757 mmHg 50%
15:00 +19°C° 0 mm 2 m/s 757 mmHg 53%
16:00 +19°C° 0 mm 2 m/s 757 mmHg 57%
17:00 +18°C° 0 mm 2 m/s 757 mmHg 60%
18:00 +17°C° 0 mm 2 m/s 757 mmHg 67%
19:00 +15°C° 0 mm 2 m/s 757 mmHg 74%
20:00 +13°C° 0 mm 2 m/s 757 mmHg 81%
21:00 +12°C° 0 mm 2 m/s 757 mmHg 82%
22:00 +12°C° 0 mm 2 m/s 757 mmHg 84%
23:00 +10°C° 0 mm 2 m/s 757 mmHg 86%

12 Mai, Miercuri

Timp Temperatura Precipitaţii Vânt Presiune Umiditate
00:00 +9°C° 0 mm 2 m/s 757 mmHg 86%
01:00 +9°C° 0 mm 2 m/s 757 mmHg 85%
02:00 +9°C° 0 mm 2 m/s 757 mmHg 85%
03:00 +9°C° 0 mm 2 m/s 757 mmHg 84%
04:00 +10°C° 0 mm 1 m/s 757 mmHg 82%
05:00 +10°C° 0 mm 1 m/s 757 mmHg 80%
06:00 +12°C° 0 mm 2 m/s 757 mmHg 72%
07:00 +14°C° 0 mm 2 m/s 757 mmHg 64%
08:00 +16°C° 0 mm 3 m/s 757 mmHg 56%
09:00 +17°C° 0 mm 3 m/s 757 mmHg 53%
10:00 +18°C° 0 mm 3 m/s 756 mmHg 49%
11:00 +20°C° 0 mm 3 m/s 756 mmHg 45%
12:00 +20°C° 0 mm 3 m/s 756 mmHg 46%
13:00 +21°C° 0 mm 3 m/s 756 mmHg 47%
14:00 +22°C° 0 mm 3 m/s 755 mmHg 47%
15:00 +21°C° 0 mm 3 m/s 755 mmHg 51%
16:00 +21°C° 0 mm 3 m/s 755 mmHg 55%
17:00 +21°C° 0 mm 3 m/s 755 mmHg 59%
18:00 +19°C° 0 mm 2 m/s 755 mmHg 67%
19:00 +17°C° 0 mm 2 m/s 755 mmHg 75%
20:00 +15°C° 0 mm 2 m/s 754 mmHg 83%
21:00 +14°C° 0 mm 2 m/s 754 mmHg 85%
22:00 +14°C° 0 mm 2 m/s 754 mmHg 88%
23:00 +13°C° 0 mm 2 m/s 754 mmHg 90%

13 Mai, Joi

Timp Temperatura Precipitaţii Vânt Presiune Umiditate
00:00 +13°C° 0 mm 2 m/s 754 mmHg 91%
01:00 +13°C° 0 mm 2 m/s 754 mmHg 92%
02:00 +12°C° 0 mm 2 m/s 754 mmHg 93%
03:00 +12°C° 0 mm 3 m/s 753 mmHg 90%
04:00 +12°C° 0 mm 3 m/s 753 mmHg 88%
05:00 +13°C° 0 mm 3 m/s 753 mmHg 86%
06:00 +14°C° 0 mm 4 m/s 753 mmHg 80%
07:00 +17°C° 0 mm 4 m/s 753 mmHg 74%
08:00 +17°C° 0 mm 5 m/s 753 mmHg 68%
09:00 +18°C° 0.1 mm 4 m/s 752 mmHg 69%
10:00 +19°C° 0.1 mm 4 m/s 752 mmHg 69%
11:00 +19°C° 0.1 mm 4 m/s 752 mmHg 70%
12:00 +20°C° 0.2 mm 4 m/s 752 mmHg 68%
13:00 +20°C° 0.2 mm 5 m/s 751 mmHg 67%
14:00 +20°C° 0.2 mm 5 m/s 751 mmHg 66%
15:00 +20°C° 0.3 mm 5 m/s 751 mmHg 68%
16:00 +20°C° 0.3 mm 4 m/s 751 mmHg 71%
17:00 +19°C° 0.3 mm 4 m/s 750 mmHg 73%
18:00 +18°C° 0.2 mm 4 m/s 750 mmHg 77%
19:00 +17°C° 0.2 mm 3 m/s 750 mmHg 82%
20:00 +16°C° 0.2 mm 3 m/s 750 mmHg 87%
21:00 +14°C° 0 mm 3 m/s 750 mmHg 89%
22:00 +14°C° 0 mm 3 m/s 750 mmHg 91%
23:00 +15°C° 0 mm 2 m/s 750 mmHg 93%
Arată mai mult

Formular de consimțământ

Meteoprog și furnizorii noștri de servicii pot stoca și accesa date personale, precum cookies, identificatori de dispozitiv sau alte tehnologii similare pe dispozitivul dumneavoastră și procesa astfel de date pentru a personaliza conținutul și reclamele, dar și pentru a oferi caracteristici de social media și pentru a analiza traficul.

  • Stocarea și/sau accesarea informațiilor pe dispozitivul dumneavoastră

    Cookies, identificatori de dispozitiv sau alte informații pot fi stocate sau accesate pe dispozitiv în scopurile indicate mai sus.

  • Reclame și conținut personalizat, evaluarea reclamelor și a conținutului, informații despre audiențe și dezvoltarea produselor

    Reclamele și conținutul pot fi personalizate pe baza unui profil. Pot fi adăugate date suplimentare pentru a personaliza mai bine reclamele și conținutul. Performanța reclamelor și conținutului poate fi măsurată. Pot fi obținute informații despre utilizatorii care au văzut reclamele și conținutul. Aceste date pot fi utilizate pentru a dezvolta sau îmbunătăți experiența utilizatorilor, sistemele și software-ul.

Dând clic pe ‘Sunt de acord’, permiteți utilizarea cookie-urilor menționate, a identificatorilor de dispozitiv, balizelor web sau altor tehnologii similare. Setările pot fi modificate din browser-ul dispozitivului dumneavoastră.

În anumite scopuri, interesele legitime pot prima asupra consimțământului. Puteți citi mai multe informații în acest sens în Politica privind Confidențialitatea Datelor și Cookie.